FW2254 Weather Reports


Display with metric or nautical units.
time (UTC)temp
F
wind
direction
speed
MPH
gust
MPH
rain 1hr
in
rain 24hr
in
rain mn
in
humidity
%
barometer
mb
20260831174511 97 14 1.0 4.0 0.00 0.00 0.00 49 1013.8
20260831173044 98 14 0.0 3.0 0.00 0.00 0.00 48 1014.2
20260831171537 97 14 1.0 3.0 0.00 0.00 0.00 49 1014.6
20260831170034 99 14 0.0 3.0 0.00 0.00 0.00 48 1014.8
20260831164531 96 14 1.0 3.0 0.00 0.00 0.00 50 1014.9
20260831163031 93 14 1.0 3.0 0.00 0.00 0.00 53 1015.2
20260831161525 92 14 0.0 2.0 0.00 0.00 0.00 57 1015.2
20260831160026 91 14 1.0 2.0 0.00 0.00 0.00 60 1015.1
20260831154514 89 14 0.0 4.0 0.00 0.00 0.00 62 1015.1
20260831153011 88 14 0.0 2.0 0.00 0.00 0.00 66 1015.0
20260831151507 87 14 0.0 2.0 0.00 0.00 0.00 69 1015.0
20260831150008 86 14 1.0 3.0 0.00 0.00 0.00 71 1015.1
20260831144600 84 14 0.0 3.0 0.00 0.00 0.00 73 1015.0
20260831143108 83 14 0.0 3.0 0.00 0.00 0.00 75 1014.9
20260831141557 83 14 0.0 2.0 0.00 0.00 0.00 77 1014.7
20260831140155 82 14 0.0 2.0 0.00 0.00 0.00 77 1014.6
20260831134558 81 14 0.0 1.0 0.00 0.00 0.00 77 1014.7
20260831133051 80 14 0.0 3.0 0.00 0.00 0.00 79 1014.5
20260831131605 78 14 0.0 1.0 0.00 0.00 0.00 81 1014.3
20260831130104 76 14 0.0 0.0 0.00 0.00 0.00 83 1014.1
20260831124531 76 14 0.0 0.0 0.00 0.00 0.00 83 1013.9
20260831123014 75 27 0.0 0.0 0.00 0.00 0.00 84 1013.5
20260831121511 75 27 0.0 0.0 0.00 0.00 0.00 82 1013.4
20260831120013 75 27 0.0 0.0 0.00 0.00 0.00 82 1013.2
20260831114508 75 26 0.0 0.0 0.00 0.00 0.00 81 1013.2
20260831113006 76 27 0.0 0.0 0.00 0.00 0.00 80 1013.1
20260831111505 76 27 0.0 0.0 0.00 0.00 0.00 80 1013.0
20260831110001 76 27 0.0 0.0 0.00 0.00 0.00 80 1012.9
20260831104600 76 27 0.0 0.0 0.00 0.00 0.00 79 1012.8
20260831103102 76 27 0.0 0.0 0.00 0.00 0.00 78 1012.9
20260831101600 77 27 0.0 0.0 0.00 0.00 0.00 77 1012.9
20260831100104 77 27 0.0 0.0 0.00 0.00 0.00 77 1012.8
20260831094601 78 27 0.0 0.0 0.00 0.00 0.00 76 1012.7
20260831093051 78 27 0.0 0.0 0.00 0.00 0.00 75 1012.7
20260831091544 78 27 0.0 0.0 0.00 0.00 0.00 74 1012.6
20260831090045 79 27 0.0 0.0 0.00 0.00 0.00 73 1012.7
20260831084546 79 27 0.0 0.0 0.00 0.00 0.00 73 1012.6
20260831083040 79 27 0.0 0.0 0.00 0.00 0.00 72 1012.6
20260831081538 80 27 0.0 1.0 0.00 0.00 0.00 71 1012.4
20260831080032 80 27 0.0 1.0 0.00 0.00 0.00 70 1012.5
20260831074531 81 27 0.0 1.0 0.00 0.00 0.00 69 1012.4
20260831073029 82 27 0.0 1.0 0.00 0.00 0.00 67 1012.3
20260831071525 82 27 0.0 2.0 0.00 0.00 0.00 67 1012.4
20260831070024 82 27 0.0 3.0 0.00 0.00 0.00 66 1012.3
20260831064522 82 27 0.0 2.0 0.00 0.00 0.00 66 1012.5
20260831063023 83 27 0.0 2.0 0.00 0.00 0.00 65 1012.6
20260831061514 83 27 0.0 2.0 0.00 0.00 0.00 65 1012.4
20260831060012 83 27 0.0 1.0 0.00 0.00 0.00 65 1012.3
20260831054509 84 27 0.0 1.0 0.00 0.00 0.00 64 1012.3
20260831053032 83 27 0.0 4.0 0.00 0.00 0.00 64 1012.1
20260831051507 83 26 0.0 2.0 0.00 0.00 0.00 65 1012.0
20260831050008 83 26 0.0 1.0 0.00 0.00 0.00 64 1011.9
20260831044532 84 26 0.0 2.0 0.00 0.00 0.00 63 1011.9
20260831043029 84 26 0.0 0.0 0.00 0.00 0.00 62 1011.8
20260831041523 84 26 0.0 0.0 0.00 0.00 0.00 61 1011.6
20260831040023 85 26 0.0 0.0 0.00 0.00 0.00 61 1011.8
20260831034522 84 26 0.0 0.0 0.00 0.00 0.00 63 1011.7
20260831033031 84 26 0.0 1.0 0.00 0.00 0.00 63 1011.5
20260831030051 84 26 0.0 1.0 0.00 0.00 0.00 67 1011.2
20260831024556 85 26 0.0 0.0 0.00 0.00 0.00 61 1010.9
20260831023056 85 26 0.0 0.0 0.00 0.00 0.00 58 1010.6
20260831021547 86 26 0.0 0.0 0.00 0.00 0.00 57 1010.4
20260831020108 87 26 0.0 0.0 0.00 0.00 0.00 55 1010.3
20260831014546 88 26 0.0 0.0 0.00 0.00 0.00 55 1010.3
20260831013044 89 26 0.0 0.0 0.00 0.00 0.00 52 1010.1
20260831011553 89 26 0.0 0.0 0.00 0.00 0.00 50 1009.9
20260831010043 91 26 0.0 0.0 0.00 0.00 0.00 49 1009.8
20260831004548 92 26 0.0 0.0 0.00 0.00 0.00 47 1009.8
20260831003014 93 26 0.0 0.0 0.00 0.00 0.00 45 1009.8
20260831001514 95 26 0.0 0.0 0.00 0.00 0.00 43 1009.8
20260831000009 96 26 0.0 1.0 0.00 0.00 0.00 41 1009.7
20260830234508 97 26 0.0 1.0 0.00 0.00 0.00 40 1009.6
20260830233008 98 29 0.0 1.0 0.00 0.00 0.00 39 1009.8
20260830231515 99 29 0.0 2.0 0.00 0.00 0.00 36 1009.8
20260830230007 99 29 0.0 2.0 0.00 0.00 0.00 36 1009.8
20260830224506 99 29 0.0 3.0 0.00 0.00 0.00 34 1009.8
20260830223004 100 29 0.0 2.0 0.00 0.00 0.00 34 1009.8
20260830221503 100 29 1.0 4.0 0.00 0.00 0.00 34 1009.8
20260830220112 100 29 0.0 1.0 0.00 0.00 0.00 34 1010.0
20260830214558 100 29 1.0 4.0 0.00 0.00 0.00 35 1010.2
20260830213119 100 29 0.0 4.0 0.00 0.00 0.00 35 1010.3
20260830211559 100 29 0.0 4.0 0.00 0.00 0.00 37 1010.4
20260830210058 101 29 1.0 4.0 0.00 0.00 0.00 37 1010.5
20260830204556 101 29 1.0 3.0 0.00 0.00 0.00 36 1010.7
20260830203053 102 29 1.0 4.0 0.00 0.00 0.00 36 1011.1
20260830201544 103 29 0.0 5.0 0.00 0.00 0.00 35 1011.3
20260830200040 104 29 1.0 3.0 0.00 0.00 0.00 34 1011.5
20260830194540 102 28 1.0 3.0 0.00 0.00 0.00 37 1011.9
20260830193039 101 28 1.0 3.0 0.00 0.00 0.00 36 1012.0
20260830191538 104 28 2.0 4.0 0.00 0.00 0.00 35 1012.3
20260830190033 103 28 1.0 5.0 0.00 0.00 0.00 36 1012.3
20260830184531 100 28 1.0 3.0 0.00 0.00 0.00 41 1012.5
20260830183030 100 28 0.0 3.0 0.00 0.00 0.00 43 1012.8
20260830181532 101 28 1.0 3.0 0.00 0.00 0.00 39 1012.9
20260830180028 101 28 0.0 6.0 0.00 0.00 0.00 41 1013.1